KB4JAC-13 Weather Reports


time (UTC)temp
F
wind
direction
speed
knots
gust
knots
rain 1hr
in
rain 24hr
in
rain mn
in
humidity
%
barometer
mb
20260901153752 92 3 0.9 1.7 0.00 0.00 0.00 64 995.6
20260901152752 90 1 0.9 0.9 0.00 0.00 0.00 68 995.6
20260901151751 89 35 1.7 2.6 0.00 0.00 0.00 67 995.7
20260901150751 89 14 0.0 1.7 0.00 0.00 0.00 70 995.9
20260901145750 89 41 0.9 0.9 0.00 0.00 0.00 72 995.7
20260901144750 88 90 1.7 1.7 0.00 0.00 0.00 73 995.8
20260901143749 86 21 0.0 0.9 0.00 0.00 0.00 75 995.7
20260901142748 85 59 0.9 1.7 0.00 0.00 0.00 76 995.6
20260901141747 86 6 0.9 0.9 0.00 0.00 0.00 73 995.8
20260901140746 84 37 0.0 0.9 0.00 0.00 0.00 77 995.8
20260901135745 83 9 0.0 2.6 0.00 0.00 0.00 79 995.9
20260901134745 81 22 0.0 1.7 0.00 0.00 0.00 82 995.7
20260901133744 80 21 0.0 0.0 0.00 0.00 0.00 83 995.7
20260901132743 80 25 0.0 0.9 0.00 0.00 0.00 85 995.7
20260901131742 80 17 0.0 0.9 0.00 0.00 0.00 86 995.8
20260901130741 77 66 0.9 1.7 0.00 0.00 0.00 90 995.7
20260901125740 74 22 0.0 0.0 0.00 0.00 0.00 98 995.6
20260901124740 72 16 0.0 0.0 0.00 0.00 0.00 99 995.7
20260901123739 71 14 0.0 0.0 0.00 0.00 0.00 99 995.6
20260901122738 71 14 0.0 0.0 0.00 0.00 0.00 99 995.6
20260901121737 70 14 0.0 0.0 0.00 0.00 0.00 99 995.4
20260901120736 69 10 0.0 0.0 0.00 0.00 0.00 99 995.4
20260901115735 69 10 0.0 0.0 0.00 0.00 0.00 99 995.1
20260901114734 68 10 0.0 0.0 0.00 0.00 0.00 99 995.0
20260901113733 68 10 0.0 0.0 0.00 0.00 0.00 99 994.8
20260901112732 68 10 0.0 0.0 0.00 0.00 0.00 99 994.7
20260901111731 68 10 0.0 0.0 0.00 0.00 0.00 99 994.6
20260901110730 68 10 0.0 0.0 0.00 0.00 0.00 99 994.5
20260901105729 68 10 0.0 0.0 0.00 0.00 0.00 99 994.4
20260901104728 68 10 0.0 0.0 0.00 0.00 0.00 99 994.4
20260901103727 68 10 0.0 0.0 0.00 0.00 0.00 99 994.2
20260901102726 68 10 0.0 0.0 0.00 0.00 0.00 99 994.2
20260901101726 68 10 0.0 0.0 0.00 0.00 0.00 99 994.1
20260901100725 69 10 0.0 0.0 0.00 0.00 0.00 99 994.2
20260901095724 69 10 0.0 0.0 0.00 0.00 0.00 99 994.2
20260901094723 69 10 0.0 0.0 0.00 0.00 0.00 99 994.1
20260901093722 69 10 0.0 0.0 0.00 0.00 0.00 99 994.2
20260901092721 69 10 0.0 0.0 0.00 0.00 0.00 99 994.0
20260901091720 69 10 0.0 0.0 0.00 0.00 0.00 99 993.9
20260901090719 69 10 0.0 0.0 0.00 0.00 0.00 99 993.8
20260901085718 69 10 0.0 0.0 0.00 0.00 0.00 99 993.9
20260901084717 70 10 0.0 0.0 0.00 0.00 0.00 99 993.7
20260901083716 69 10 0.0 0.0 0.00 0.00 0.00 99 993.8
20260901082715 69 10 0.0 0.0 0.00 0.00 0.00 99 993.7
20260901081715 69 10 0.0 0.0 0.00 0.00 0.00 99 993.6
20260901080714 70 10 0.0 0.0 0.00 0.00 0.00 99 993.5
20260901075713 70 10 0.0 0.0 0.00 0.00 0.00 99 993.8
20260901074712 70 10 0.0 0.0 0.00 0.00 0.00 99 993.8
20260901073711 70 10 0.0 0.0 0.00 0.00 0.00 99 993.4
20260901072710 70 9 0.0 0.0 0.00 0.00 0.00 99 993.6
20260901071709 70 9 0.0 0.0 0.00 0.00 0.00 99 993.6
20260901070708 70 9 0.0 0.0 0.00 0.00 0.00 99 993.9
20260901065707 71 9 0.0 0.0 0.00 0.00 0.00 99 993.6
20260901064706 71 9 0.0 0.0 0.00 0.00 0.00 99 993.8
20260901063705 71 10 0.0 0.0 0.00 0.00 0.00 99 994.0
20260901062704 71 10 0.0 0.0 0.00 0.00 0.00 99 994.0
20260901061704 71 10 0.0 0.0 0.00 0.00 0.00 99 994.0
20260901060703 71 10 0.0 0.0 0.00 0.00 0.00 99 994.0
20260901055702 71 10 0.0 0.0 0.00 0.00 0.00 99 993.9
20260901054701 71 10 0.0 0.0 0.00 0.00 0.00 99 994.0
20260901053700 71 10 0.0 0.0 0.00 0.00 0.00 99 994.0
20260901052659 72 10 0.0 0.0 0.00 0.00 0.00 99 994.0
20260901051658 72 10 0.0 0.0 0.00 0.00 0.00 99 994.0
20260901050657 72 10 0.0 0.0 0.00 0.00 0.00 99 993.9
20260901045656 72 10 0.0 0.0 0.00 0.00 0.00 99 994.1
20260901044655 72 10 0.0 0.0 0.00 0.00 0.00 99 993.9
20260901043654 72 10 0.0 0.0 0.00 0.00 0.00 99 993.7
20260901042653 73 10 0.0 0.0 0.00 0.00 0.00 99 993.8
20260901041653 73 10 0.0 0.0 0.00 0.00 0.00 98 993.8
20260901040652 73 10 0.0 0.0 0.00 0.00 0.00 98 993.8
20260901035651 73 10 0.0 0.0 0.00 0.00 0.00 97 993.9
20260901034650 74 10 0.0 0.0 0.00 0.00 0.00 97 994.0
20260901033649 74 10 0.0 0.0 0.00 0.00 0.00 96 993.9
20260901032648 74 9 0.0 0.0 0.00 0.00 0.00 96 994.0
20260901031647 74 9 0.0 0.0 0.00 0.00 0.00 95 993.9
20260901030646 75 8 0.0 0.0 0.00 0.00 0.00 94 994.0
20260901025645 75 11 0.0 0.0 0.00 0.00 0.00 93 994.1
20260901024645 0 0.0 0.0 0.00 0.00 0.00
20260901023644 75 10 0.0 0.0 0.00 0.00 0.00 92 994.0
20260901022643 76 10 0.0 0.0 0.00 0.00 0.00 91 994.0
20260901021642 0 0.0 0.0 0.00 0.00 0.00
20260901020641 76 10 0.0 0.0 0.00 0.00 0.00 90 993.8
20260901015640 76 10 0.0 0.0 0.00 0.00 0.00 90 993.7
20260901014640 77 11 0.0 0.0 0.00 0.00 0.00 90 993.6
20260901013639 77 11 0.0 0.0 0.00 0.00 0.00 88 993.5
20260901012638 78 11 0.0 0.0 0.00 0.00 0.00 87 993.3
20260901011637 78 4 0.0 0.0 0.00 0.00 0.00 85 993.3
20260901010636 79 356 0.0 0.0 0.00 0.00 0.00 84 993.3
20260901005635 80 10 0.0 0.0 0.00 0.00 0.00 82 993.0
20260901004634 80 13 0.0 0.0 0.00 0.00 0.00 80 992.8
20260901003633 80 11 0.0 0.0 0.00 0.00 0.00 79 992.7
20260901002632 81 11 0.0 0.0 0.00 0.00 0.00 77 992.9
20260901001631 82 10 0.0 0.0 0.00 0.00 0.00 75 992.6
20260901000630 83 11 0.0 0.0 0.00 0.00 0.00 73 992.7
20260831235629 84 11 0.0 0.0 0.00 0.00 0.00 70 992.8
20260831234629 84 11 0.0 0.0 0.00 0.00 0.00 69 992.6
20260831233628 85 11 0.0 0.0 0.00 0.00 0.00 66 992.8
20260831232627 86 10 0.0 0.0 0.00 0.00 0.00 64 992.7
20260831231626 88 10 0.0 0.0 0.00 0.00 0.00 62 993.0
20260831230625 90 8 0.0 0.0 0.00 0.00 0.00 59 992.8
20260831225625 90 7 0.0 0.0 0.00 0.00 0.00 59 992.9
20260831224626 89 9 0.0 0.0 0.00 0.00 0.00 61 993.0
20260831223625 91 10 0.0 0.0 0.00 0.00 0.00 57 992.9
20260831222625 94 2 0.0 0.0 0.00 0.00 0.00 54 992.9
20260831221624 97 0 0.0 0.0 0.00 0.00 0.00 50 993.0
20260831220623 96 0 0.0 0.0 0.00 0.00 0.00 50 993.0
20260831215622 98 11 0.0 0.9 0.00 0.00 0.00 42 993.1
20260831214623 98 353 0.0 0.0 0.00 0.00 0.00 42 993.3
20260831213621 98 359 0.0 0.9 0.00 0.00 0.00 48 993.2
20260831212623 98 345 0.0 0.0 0.00 0.00 0.00 42 993.2
20260831211620 97 357 0.9 0.9 0.00 0.00 0.00 43 993.4
20260831210620 99 356 0.0 0.9 0.00 0.00 0.00 41 993.3
20260831205620 98 9 0.9 0.9 0.00 0.00 0.00 43 993.3
20260831204620 96 352 0.0 0.9 0.00 0.00 0.00 42 993.3
20260831203619 97 276 0.0 0.9 0.00 0.00 0.00 41 993.5
20260831202618 96 6 0.9 1.7 0.00 0.00 0.00 43 993.6
20260831201617 97 0 0.0 0.0 0.00 0.00 0.00 45 993.8
20260831200617 98 276 0.9 0.9 0.00 0.00 0.00 41 993.8
20260831195616 98 17 0.0 1.7 0.00 0.00 0.00 44 994.2
20260831194615 97 330 0.9 1.7 0.00 0.00 0.00 47 994.2
20260831193615 94 11 1.7 1.7 0.00 0.00 0.00 49 994.3
20260831192614 93 358 0.0 0.0 0.00 0.00 0.00 54 994.2
20260831191613 95 69 1.7 2.6 0.00 0.00 0.00 50 994.5
20260831190614 93 6 0.0 0.9 0.00 0.00 0.00 51 994.5
20260831185612 96 39 0.9 1.7 0.00 0.00 0.00 52 994.4
20260831184613 97 24 0.9 1.7 0.00 0.00 0.00 49 994.8
20260831183612 95 82 1.7 2.6 0.00 0.00 0.00 49 994.8
20260831182611 96 301 2.6 3.5 0.00 0.00 0.00 50 994.8
20260831181610 94 29 0.0 2.6 0.00 0.00 0.00 55 995.0
20260831180609 94 32 0.9 0.9 0.00 0.00 0.00 53 995.2
20260831175608 92 37 0.0 1.7 0.00 0.00 0.00 58 995.1
20260831174608 88 351 0.0 0.0 0.00 0.00 0.00 66 995.3
20260831173607 93 330 0.9 1.7 0.00 0.00 0.00 60 995.4
20260831172607 93 278 0.9 1.7 0.00 0.00 0.00 56 995.3
20260831171606 93 18 0.0 0.9 0.00 0.00 0.00 58 995.4
20260831170606 92 330 0.9 1.7 0.00 0.00 0.00 58 995.5
20260831165605 94 341 0.9 0.9 0.00 0.00 0.00 57 995.7
20260831164604 93 19 1.7 2.6 0.00 0.00 0.00 58 995.9
20260831163604 90 351 0.0 0.9 0.00 0.00 0.00 63 995.8
20260831162603 87 19 0.0 0.9 0.00 0.00 0.00 67 996.0
20260831161604 89 11 0.0 0.9 0.00 0.00 0.00 66 996.0
20260831160603 89 356 0.0 0.9 0.00 0.00 0.00 68 996.0
20260831155602 87 357 0.0 1.7 0.00 0.00 0.00 69 996.0
20260831154601 90 82 1.7 5.2 0.00 0.00 0.00 63 996.1